Location: Weatherford
(35.5260°N, 98.7070°W)
Time: 17:22:05
(UTC-05:00)

Amateur Radio Satellites - All Passes

Search period start: 26 June 2017 16:52
Search period end: 27 June 2017 16:52
Location: Weatherford, 35.5260°N, 98.7070°W

Satellite Date Start Highest point End Downlink Frequencies (MHz)
Time Altitude Azimuth
KKS-1 26 Jun 17:29:54 17:33:06 19° 95° (E) 17:36:17 437.445
MOZHAYETS 4 26 Jun 17:40:37 17:44:42 33° 289° (WNW) 17:48:46
ITAMSAT 1 26 Jun 17:52:01 17:53:25 11° 269° (W) 17:54:48 435.822/435.867
STARS 26 Jun 17:56:56 17:59:31 15° 94° (E) 18:02:05 437.465
XW-2C 26 Jun 18:00:37 18:02:40 14° 68° (ENE) 18:04:44 145.795 - 145.815
AO-7 26 Jun 18:06:39 18:11:50 18° 267° (W) 18:17:03 .
KAITUO 1B 26 Jun 18:11:48 18:13:54 14° 69° (ENE) 18:16:01 145.475/437.950
ITUPSAT 1 26 Jun 18:12:47 18:14:38 12° 297° (WNW) 18:16:29 437.325
SRMSAT 26 Jun 18:20:15 18:24:00 17° 182° (S) 18:27:44 437.500
CUBESAT XI-V 26 Jun 18:24:12 18:28:45 64° 284° (WNW) 18:33:17 437.345
DOVE 4 26 Jun 18:36:38 18:40:47 81° 260° (W) 18:45:03 437.250
NUDT-PHONESAT 26 Jun 18:44:14 18:47:43 36° 74° (ENE) 18:51:12 437.300
HO-68 26 Jun 18:56:37 19:02:16 26° 62° (ENE) 19:07:55 435.675
CUTE-I 26 Jun 18:59:21 19:04:37 70° 75° (ENE) 19:09:57 437.470
CUTE 1.7 + AOD 2 26 Jun 19:01:01 19:02:25 11° 66° (ENE) 19:03:49 437.475
XW-2F 26 Jun 19:03:12 19:07:01 89° 76° (ENE) 19:10:51 145.980 - 146.000
KKS-1 26 Jun 19:05:40 19:09:40 33° 289° (WNW) 19:13:41 437.445
XW-2D 26 Jun 19:08:03 19:11:52 71° 258° (WSW) 19:15:43 145.860 - 145.880
XW-2B 26 Jun 19:17:10 19:20:56 55° 260° (W) 19:24:43 145.730 - 145.750
LilacSat-2 26 Jun 19:17:56 19:21:41 50° 261° (W) 19:25:27 437.200
CUBEBUG 2 26 Jun 19:24:22 19:26:10 12° 64° (ENE) 19:27:58 437.445
RS-15 26 Jun 19:31:08 19:37:34 16° 97° (E) 19:44:03 29.354- 29.394
STARS 26 Jun 19:31:49 19:35:59 41° 288° (WNW) 19:40:07 437.465
XW-2C 26 Jun 19:33:03 19:36:32 33° 262° (W) 19:40:02 145.795 - 145.815
KAITUO 1B 26 Jun 19:44:13 19:47:36 31° 262° (W) 19:51:00 145.475/437.950
UWE-3 26 Jun 19:54:27 19:57:08 16° 66° (ENE) 19:59:52 435.000/436.395/437.385
SRMSAT 26 Jun 20:09:56 20:12:24 13° 192° (SSW) 20:14:51 437.500
SEEDS 26 Jun 20:13:45 20:17:49 52° 75° (ENE) 20:21:54 437.485
NUDT-PHONESAT 26 Jun 20:20:21 20:21:43 12° 267° (W) 20:23:06 437.300
CUTE 1.7 + AOD 2 26 Jun 20:33:36 20:37:45 53° 260° (W) 20:41:55 437.475
AO-85 26 Jun 20:40:09 20:44:09 47° 116° (ESE) 20:47:58 145.980
HO-68 26 Jun 20:42:28 20:49:29 56° 258° (WSW) 20:56:33 435.675
CUTE-I 26 Jun 20:43:13 20:45:07 12° 269° (W) 20:47:02 437.470
AO-73 26 Jun 20:45:29 20:49:19 27° 71° (ENE) 20:53:11 145.935
XW-2A 26 Jun 20:47:53 20:51:07 38° 262° (W) 20:54:22 145.665 - 145.685
CUBEBUG 2 26 Jun 20:57:39 21:02:09 61° 260° (W) 21:06:49 437.445
BEESAT 2 26 Jun 20:58:21 21:00:03 12° 108° (ESE) 21:01:46 435.950
AAUSAT CUBESAT 2 26 Jun 21:00:47 21:04:54 86° 77° (ENE) 21:09:02 437.432
STRAND 1 26 Jun 21:05:37 21:10:48 89° 102° (ESE) 21:15:56 437.568
Oscar 11 26 Jun 21:10:55 21:14:57 39° 73° (ENE) 21:18:59 .
NO-84 26 Jun 21:10:57 21:14:08 27° 124° (SE) 21:17:33 435.350 FM
ZACube-1 26 Jun 21:20:29 21:25:01 78° 77° (ENE) 21:29:38 437.345
UWE-3 26 Jun 21:28:46 21:33:08 46° 261° (W) 21:37:38 435.000/436.395/437.385
BEESAT 3 26 Jun 21:31:17 21:35:13 76° 300° (WNW) 21:39:15 437.485
YUBILEINY 26 Jun 21:32:32 21:39:07 24° 82° (E) 21:45:43 435.215
RS-15 26 Jun 21:35:55 21:47:58 79° 115° (ESE) 22:00:21 29.354- 29.394
O/OREOS (USA 219) 26 Jun 21:37:31 21:41:41 36° 105° (ESE) 21:45:51 437.305
SEEDS 26 Jun 21:53:04 21:53:45 10° 269° (W) 21:54:27 437.485
PCSat 26 Jun 22:06:19 22:11:44 69° 62° (ENE) 22:17:07 145.827
DELFI C3 26 Jun 22:15:24 22:19:13 53° 75° (ENE) 22:23:02 145.870
M-CUBED/EXP-1 PRIME 26 Jun 22:20:02 22:22:16 15° 100° (E) 22:24:35 437.505
AO-73 26 Jun 22:21:47 22:25:27 24° 265° (W) 22:29:10 145.935
AO-85 26 Jun 22:22:37 22:24:44 14° 311° (NW) 22:26:48 145.980
UNISAT 6 26 Jun 22:25:39 22:27:52 13° 92° (E) 22:30:03 437.425
BEESAT 2 26 Jun 22:33:32 22:37:21 44° 303° (WNW) 22:41:14 435.950
PRISM 26 Jun 22:45:33 22:48:38 20° 96° (E) 22:51:43 437.425
NO-84 26 Jun 22:48:09 22:51:36 30° 322° (NW) 22:55:18 435.350 FM
Oscar 11 26 Jun 22:48:42 22:51:12 15° 267° (W) 22:53:43 .
EO-88 26 Jun 22:53:52 22:57:30 70° 258° (WSW) 23:01:11 145.990 - 145.960
FO-29 26 Jun 23:06:32 23:14:22 64° 101° (E) 23:21:55 435.910
LO-87 26 Jun 23:12:58 23:15:35 20° 71° (ENE) 23:18:13 145.935 - 145.965
TIGRISAT 26 Jun 23:17:46 23:22:16 49° 99° (E) 23:26:38 435.000
O/OREOS (USA 219) 26 Jun 23:17:59 23:21:11 19° 300° (WNW) 23:24:23 437.305
YUBILEINY 26 Jun 23:26:26 23:35:07 63° 280° (W) 23:43:54 435.215
SO-50 26 Jun 23:38:36 23:42:56 44° 56° (NE) 23:47:17 436.795
ESTCUBE 1 26 Jun 23:42:43 23:46:42 32° 71° (ENE) 23:50:40 437.505/2401.250
RS-15 26 Jun 23:51:10 00:01:47 33° 319° (NW) 00:12:35 29.354- 29.394
PCSat 26 Jun 23:52:04 23:54:27 13° 257° (WSW) 23:56:50 145.827
M-CUBED/EXP-1 PRIME 26 Jun 23:53:12 23:56:42 35° 291° (WNW) 00:00:27 437.505
UNISAT 6 27 Jun 00:00:21 00:04:50 49° 286° (WNW) 00:09:12 437.425
AIST 2D 27 Jun 00:09:14 00:11:48 19° 95° (E) 00:14:21 435.315
PRISM 27 Jun 00:20:25 00:23:50 26° 289° (WNW) 00:27:16 437.425
POLYITAN 1 27 Jun 00:31:46 00:34:44 18° 94° (E) 00:37:41 437.675
QB50P2 27 Jun 00:42:08 00:45:46 27° 96° (E) 00:49:22 145.880/145.840
LO-87 27 Jun 00:46:17 00:48:53 19° 265° (W) 00:51:31 145.935 - 145.965
FO-29 27 Jun 00:52:32 00:58:42 26° 297° (WNW) 01:04:48 435.910
TIGRISAT 27 Jun 00:55:58 00:58:27 15° 295° (WNW) 01:00:54 435.000
EO-79 27 Jun 01:05:42 01:09:50 46° 99° (E) 01:13:55 145.935-145.965
VELOX 1 27 Jun 01:13:42 01:18:04 78° 75° (ENE) 01:22:26 145.980
DUCHIFAT 1 27 Jun 01:17:50 01:21:59 52° 100° (E) 01:26:06 145.980
SO-50 27 Jun 01:20:09 01:23:01 17° 251° (WSW) 01:25:53 436.795
ESTCUBE 1 27 Jun 01:20:12 01:23:29 20° 265° (W) 01:26:48 437.505/2401.250
SPROUT 27 Jun 01:23:17 01:27:31 74° 258° (WSW) 01:31:49 437.525
NANOSAT C BR1 27 Jun 01:27:08 01:31:24 78° 102° (ESE) 01:35:37 145.865
DX 1 27 Jun 01:28:48 01:32:42 34° 71° (ENE) 01:36:37 434.975-435.025
AIST 2D 27 Jun 01:42:22 01:44:52 19° 289° (WNW) 01:47:20 435.315
UKube-1 27 Jun 01:42:49 01:46:38 33° 71° (ENE) 01:50:30 .
50 SAT 27 Jun 01:52:48 01:56:08 70° 258° (WSW) 01:59:31 437.505
Oscar 19 27 Jun 02:05:16 02:08:51 19° 94° (E) 02:12:25 437.125/150
POLYITAN 1 27 Jun 02:06:45 02:10:32 31° 289° (WNW) 02:14:17 437.675
RS-15 27 Jun 02:13:55 02:20:06 15° 353° (N) 02:26:15 29.354- 29.394
QB50P2 27 Jun 02:18:06 02:21:23 22° 291° (WNW) 02:24:38 145.880/145.840
BUGSAT 1 27 Jun 02:21:35 02:25:50 84° 101° (E) 02:30:03 437.445
EO-79 27 Jun 02:43:10 02:45:08 13° 294° (WNW) 02:47:06 145.935-145.965
DUCHIFAT 1 27 Jun 02:55:38 02:57:09 12° 295° (WNW) 02:58:39 145.980
MOZHAYETS 4 27 Jun 03:04:02 03:06:31 15° 66° (ENE) 03:09:01
DX 1 27 Jun 03:06:08 03:08:56 17° 265° (W) 03:11:47 434.975-435.025
Gurwin Techsat 1B 27 Jun 03:10:04 03:15:17 53° 100° (E) 03:20:28 435.225
UKube-1 27 Jun 03:19:48 03:22:42 18° 265° (W) 03:25:37 .
ITUPSAT 1 27 Jun 03:36:10 03:40:50 53° 73° (ENE) 03:45:30 437.325
Oscar 19 27 Jun 03:43:29 03:48:18 42° 289° (WNW) 03:53:06 437.125/150
BEESAT 27 Jun 03:44:57 03:49:42 68° 74° (ENE) 03:54:28 436.000
NO-84 27 Jun 03:48:06 03:49:34 11° 25° (NNE) 03:51:01 435.350 FM
AO-7 27 Jun 04:15:42 04:23:02 33° 98° (E) 04:30:17 .
ITAMSAT 1 27 Jun 04:24:34 04:29:15 32° 98° (E) 04:33:53 435.822/435.867
KKS-1 27 Jun 04:26:22 04:28:19 13° 65° (ENE) 04:30:16 437.445
RS-15 27 Jun 04:30:30 04:39:33 23° 30° (NNE) 04:48:18 29.354- 29.394
MOZHAYETS 4 27 Jun 04:38:43 04:43:13 50° 260° (W) 04:47:44
Gurwin Techsat 1B 27 Jun 04:51:21 04:54:45 17° 295° (WNW) 04:58:08 435.225
AO-85 27 Jun 05:14:09 05:17:07 19° 52° (NE) 05:20:13 145.980
ITUPSAT 1 27 Jun 05:16:32 05:18:54 14° 267° (W) 05:21:17 437.325
NO-84 27 Jun 05:23:46 05:28:02 50° 43° (NE) 05:32:12 435.350 FM
CUBESAT XI-V 27 Jun 05:23:58 05:28:37 86° 79° (E) 05:33:16 437.345
BEESAT 27 Jun 05:27:21 05:27:52 10° 269° (W) 05:28:22 436.000
BEESAT 3 27 Jun 05:51:14 05:54:30 23° 52° (NE) 05:57:42 437.485
KKS-1 27 Jun 06:00:04 06:04:22 52° 260° (W) 06:08:43 437.445
ITAMSAT 1 27 Jun 06:04:13 06:08:32 27° 292° (WNW) 06:12:51 435.822/435.867
AO-7 27 Jun 06:07:56 06:15:54 51° 294° (WNW) 06:23:52 .
STARS 27 Jun 06:24:46 06:29:07 69° 258° (WSW) 06:33:30 437.465
DOVE 4 27 Jun 06:37:31 06:42:08 36° 98° (E) 06:46:55 437.250
XW-2F 27 Jun 06:40:41 06:41:37 11° 92° (E) 06:42:32 145.980 - 146.000
RS-15 27 Jun 06:42:40 06:54:48 71° 58° (ENE) 07:06:13 29.354- 29.394
XW-2D 27 Jun 06:44:56 06:46:57 14° 93° (E) 06:48:57 145.860 - 145.880
Tancredo 1 27 Jun 06:53:19 06:54:53 13° 128° (SE) 06:56:28 437.200
XW-2B 27 Jun 06:53:31 06:56:04 17° 94° (E) 06:58:36 145.730 - 145.750
AO-85 27 Jun 06:53:40 06:57:35 38° 245° (WSW) 07:01:45 145.980
BEESAT 2 27 Jun 06:53:48 06:57:37 38° 56° (NE) 07:01:22 435.950
LilacSat-2 27 Jun 06:54:44 06:57:31 19° 95° (E) 07:00:17 437.200
NO-84 27 Jun 07:02:19 07:05:17 18° 239° (WSW) 07:08:10 435.350 FM
XW-2C 27 Jun 07:08:30 07:11:45 28° 97° (E) 07:14:59 145.795 - 145.815
KAITUO 1B 27 Jun 07:18:13 07:21:24 27° 97° (E) 07:24:35 145.475/437.950
CUTE-I 27 Jun 07:19:41 07:24:37 36° 98° (E) 07:29:30 437.470
BEESAT 3 27 Jun 07:28:43 07:31:59 25° 248° (WSW) 07:35:14 437.485
ISS 27 Jun 07:32:56 07:35:13 18° 129° (SE) 07:37:32 437.550
O/OREOS (USA 219) 27 Jun 07:50:15 07:54:31 42° 66° (ENE) 07:58:44 437.305
NUDT-PHONESAT 27 Jun 07:50:55 07:54:37 81° 101° (ESE) 07:58:16 437.300
SEEDS 27 Jun 08:03:13 08:03:57 10° 91° (E) 08:04:41 437.485
XW-2F 27 Jun 08:12:25 08:15:54 38° 286° (WNW) 08:19:21 145.980 - 146.000
XW-2A 27 Jun 08:13:39 08:15:29 14° 94° (E) 08:17:18 145.665 - 145.685
HO-68 27 Jun 08:13:44 08:20:08 34° 98° (E) 08:26:29 435.675
DOVE 4 27 Jun 08:15:40 08:19:34 23° 291° (WNW) 08:23:36 437.250
XW-2D 27 Jun 08:17:52 08:21:11 30° 287° (WNW) 08:24:28 145.860 - 145.880
STRAND 1 27 Jun 08:18:17 08:23:25 88° 257° (WSW) 08:28:36 437.568
CUTE 1.7 + AOD 2 27 Jun 08:21:32 08:25:17 30° 97° (E) 08:28:59 437.475
XW-2B 27 Jun 08:27:07 08:30:12 24° 288° (WNW) 08:33:15 145.730 - 145.750
Tancredo 1 27 Jun 08:27:20 08:30:11 38° 322° (NW) 08:33:04 437.200
LilacSat-2 27 Jun 08:28:44 08:31:41 22° 289° (WNW) 08:34:37 437.200
BEESAT 2 27 Jun 08:32:40 08:35:00 15° 251° (WSW) 08:37:19 435.950
XW-2C 27 Jun 08:43:24 08:45:41 16° 291° (WNW) 08:47:58 145.795 - 145.815
AAUSAT CUBESAT 2 27 Jun 08:46:53 08:49:29 16° 94° (E) 08:52:04 437.432
CUBEBUG 2 27 Jun 08:51:43 08:56:01 36° 97° (E) 09:00:12 437.445
KAITUO 1B 27 Jun 08:52:58 08:55:09 15° 291° (WNW) 08:57:20 145.475/437.950
RS-15 27 Jun 08:56:35 09:06:06 30° 258° (WSW) 09:15:18 29.354- 29.394
CUTE-I 27 Jun 09:00:05 09:04:26 26° 293° (WNW) 09:08:45 437.470
ISS 27 Jun 09:08:28 09:11:29 35° 323° (NW) 09:14:33 437.550
ZACube-1 27 Jun 09:12:59 09:16:04 19° 93° (E) 09:19:06 437.345
FO-29 27 Jun 09:17:26 09:21:35 19° 60° (ENE) 09:26:04 435.910
UWE-3 27 Jun 09:21:24 09:25:45 44° 99° (E) 09:29:58 435.000/436.395/437.385
O/OREOS (USA 219) 27 Jun 09:31:05 09:33:29 14° 261° (W) 09:35:53 437.305
SEEDS 27 Jun 09:35:51 09:39:52 50° 285° (WNW) 09:43:53 437.485
YUBILEINY 27 Jun 09:40:22 09:49:04 58° 80° (E) 09:57:38 435.215
XW-2A 27 Jun 09:45:25 09:48:11 24° 288° (WNW) 09:50:57 145.665 - 145.685
CUTE 1.7 + AOD 2 27 Jun 09:57:59 10:00:51 18° 291° (WNW) 10:03:43 437.475
HO-68 27 Jun 10:01:14 10:07:49 41° 293° (WNW) 10:14:21 435.675
AO-73 27 Jun 10:11:49 10:16:15 84° 102° (ESE) 10:20:31 145.935
TIGRISAT 27 Jun 10:13:16 10:17:16 30° 71° (ENE) 10:21:20 435.000
AAUSAT CUBESAT 2 27 Jun 10:21:19 10:24:59 32° 287° (WNW) 10:28:39 437.432
EO-88 27 Jun 10:27:25 10:28:47 12° 93° (E) 10:30:09 145.990 - 145.960
CUBEBUG 2 27 Jun 10:29:01 10:32:19 19° 292° (WNW) 10:35:34 437.445
Oscar 11 27 Jun 10:36:40 10:40:56 65° 284° (WNW) 10:45:10 .
M-CUBED/EXP-1 PRIME 27 Jun 10:36:53 10:40:02 40° 256° (WSW) 10:43:07 437.505
ZACube-1 27 Jun 10:48:28 10:52:24 32° 288° (WNW) 10:56:14 437.345
UNISAT 6 27 Jun 10:55:16 10:59:51 84° 258° (WSW) 11:04:34 437.425
UWE-3 27 Jun 10:59:10 11:01:45 15° 294° (WNW) 11:04:17 435.000/436.395/437.385
FO-29 27 Jun 10:59:51 11:05:46 66° 259° (W) 11:12:34 435.910
PCSat 27 Jun 11:04:55 11:07:18 13° 103° (ESE) 11:09:41 145.827
PRISM 27 Jun 11:05:48 11:09:46 55° 259° (W) 11:13:46 437.425
DELFI C3 27 Jun 11:29:41 11:33:33 58° 285° (WNW) 11:37:26 145.870
QB50P2 27 Jun 11:32:53 11:35:12 14° 67° (ENE) 11:37:32 145.880/145.840
YUBILEINY 27 Jun 11:38:16 11:45:11 27° 277° (W) 11:52:05 435.215
TIGRISAT 27 Jun 11:50:18 11:53:54 23° 265° (W) 11:57:34 435.000
EO-79 27 Jun 11:55:25 11:58:49 24° 70° (ENE) 12:02:15 145.935-145.965
EO-88 27 Jun 11:59:16 12:02:34 33° 287° (WNW) 12:05:50 145.990 - 145.960
DUCHIFAT 1 27 Jun 12:06:49 12:10:18 26° 70° (ENE) 12:13:49 145.980
AIST 2D 27 Jun 12:12:21 12:15:54 90° 108° (ESE) 12:19:28 435.315
LO-87 27 Jun 12:15:04 12:18:27 36° 98° (E) 12:21:49 145.935 - 145.965
NANOSAT C BR1 27 Jun 12:16:01 12:19:54 37° 72° (ENE) 12:23:51 145.865
JUGNU 27 Jun 12:42:50 12:45:15 12° 168° (SSE) 12:47:40 437.505
PCSat 27 Jun 12:44:38 12:50:01 69° 298° (WNW) 12:55:27 145.827
POLYITAN 1 27 Jun 12:55:21 12:59:34 64° 259° (W) 13:03:50 437.675
QB50P2 27 Jun 13:06:34 13:10:36 41° 261° (W) 13:14:39 145.880/145.840
VELOX 1 27 Jun 13:07:32 13:10:37 18° 95° (E) 13:13:41 145.980
BUGSAT 1 27 Jun 13:08:06 13:11:53 37° 72° (ENE) 13:15:45 437.445
SPROUT 27 Jun 13:12:27 13:15:53 23° 96° (E) 13:19:17 437.525
ESTCUBE 1 27 Jun 13:14:04 13:18:32 76° 284° (WNW) 13:23:00 437.505/2401.250
Oscar 19 27 Jun 13:19:17 13:23:08 22° 67° (ENE) 13:26:59 437.125/150
EO-79 27 Jun 13:31:00 13:34:27 24° 264° (W) 13:37:55 145.935-145.965
DUCHIFAT 1 27 Jun 13:42:35 13:45:53 22° 265° (W) 13:49:12 145.980
LO-87 27 Jun 13:50:13 13:51:31 12° 292° (WNW) 13:52:48 145.935 - 145.965
SO-50 27 Jun 13:50:16 13:54:10 28° 112° (ESE) 13:58:01 436.795
NANOSAT C BR1 27 Jun 13:53:14 13:55:43 15° 267° (W) 13:58:12 145.865
ISS 27 Jun 14:03:41 14:04:39 11° 23° (NNE) 14:05:37 437.550
Gurwin Techsat 1B 27 Jun 14:28:04 14:33:17 63° 74° (ENE) 14:38:33 435.225
JUGNU 27 Jun 14:29:45 14:33:30 17° 178° (S) 14:37:15 437.505
VELOX 1 27 Jun 14:43:06 14:47:06 34° 288° (WNW) 14:51:05 145.980
BUGSAT 1 27 Jun 14:45:03 14:47:21 15° 267° (W) 14:49:42 437.445
SPROUT 27 Jun 14:48:08 14:51:41 25° 290° (WNW) 14:55:12 437.525
50 SAT 27 Jun 14:50:38 14:53:54 42° 285° (WNW) 14:57:08 437.505
Tancredo 1 27 Jun 14:53:43 14:56:40 46° 39° (NE) 14:59:36 437.200
DX 1 27 Jun 14:55:16 14:59:39 81° 284° (WNW) 15:04:02 434.975-435.025
Oscar 19 27 Jun 14:57:21 15:02:09 39° 261° (W) 15:06:58 437.125/150
UKube-1 27 Jun 15:07:56 15:12:16 88° 284° (WNW) 15:16:35 .
AO-7 27 Jun 15:11:34 15:18:52 36° 62° (ENE) 15:26:12 .
SO-50 27 Jun 15:30:39 15:34:32 27° 307° (NW) 15:38:25 436.795
ISS 27 Jun 15:38:24 15:41:40 65° 40° (NE) 15:44:57 437.550
ITAMSAT 1 27 Jun 15:39:32 15:44:16 37° 70° (ENE) 15:49:02 435.822/435.867
ITUPSAT 1 27 Jun 15:40:47 15:43:53 17° 94° (E) 15:46:58 437.325
BEESAT 27 Jun 15:48:49 15:52:27 21° 95° (E) 15:56:04 436.000
Gurwin Techsat 1B 27 Jun 16:11:07 16:13:37 13° 268° (W) 16:16:06 435.225
JUGNU 27 Jun 16:18:30 16:21:46 15° 188° (S) 16:25:03 437.505
SRMSAT 27 Jun 16:19:10 16:22:34 16° 173° (S) 16:25:59 437.500
Tancredo 1 27 Jun 16:30:50 16:31:54 11° 233° (SW) 16:32:58 437.200
MOZHAYETS 4 27 Jun 16:36:36 16:41:01 46° 99° (E) 16:45:23
